UAE216 KLAX-OMDB

Flight info

Callsign UAE216
Flight time N/A
Altitude 31000
Route OSHNN1 BEALE DCT EHK DCT OCS DCT KD90W DCT KP15A/N0498F330 DCT GABOV DCT ELVEL DCT 55N080W 5830N07000W DCT MIBNO/M086F350 DCT MAXAR DCT 63N050W 64N040W 6430N03000W 64N020W 63N010W DCT GUNPA/N0495F370 DCT ZOL DCT RADIS DCT KOSEB DCT PEROM DCT BINKA DCT ROVEK DCT AGALU DCT BABKO DCT ABULI DCT MEGIK DCT NIGEV DCT DINEN DCT ADORU UG80 EKI UN739 TUMER/N0489F390 UT38 VESAR DCT BALMA UR655 LEBOR R655 KTN R785 RASLI P559 TRF R23 NEVOL N318 TAMRO T503 KSA M321 RESAL T533 RAPMA DCT KUVSO DCT KATIT DCT PEKEM M628 RIGIL G783 ELUDA/N0473F350 G783 ASPED Q308 KIPOK Q568 IMPED
Aircraft A388/J-SADE2E3FGHIJ3J4J5M1RWXY/LB1D1

Departure

Time 2026-05-05 04:21
Airport Los Angeles International Airport (KLAX)

Arrival

Time N/A
Airport Dubai International Airport (OMDB)
Time Latitude Longitude Altitude Speed Heading
2026-05-05 03:28 33.93943 -118.41063 98 ft 0 kts 83°
2026-05-05 04:03 33.93941 -118.41087 95 ft 4 kts 83°
2026-05-05 04:03 33.93937 -118.41119 99 ft 4 kts 83°
2026-05-05 04:04 33.93934 -118.41145 96 ft 4 kts 69°
2026-05-05 04:04 33.93920 -118.41167 97 ft 4 kts 11°
2026-05-05 04:04 33.93903 -118.41167 98 ft 0 kts 353°
2026-05-05 04:08 33.93904 -118.41167 98 ft 0 kts 353°
2026-05-05 04:08 33.93921 -118.41169 97 ft 4 kts 353°
2026-05-05 04:08 33.93959 -118.41175 97 ft 6 kts 353°
2026-05-05 04:08 33.94008 -118.41182 99 ft 8 kts 353°
2026-05-05 04:09 33.94065 -118.41190 99 ft 9 kts 353°
2026-05-05 04:09 33.94129 -118.41199 100 ft 10 kts 353°
2026-05-05 04:09 33.94201 -118.41210 100 ft 11 kts 353°
2026-05-05 04:09 33.94277 -118.41222 100 ft 11 kts 352°
2026-05-05 04:10 33.94358 -118.41234 100 ft 12 kts 353°
2026-05-05 04:10 33.94442 -118.41247 99 ft 12 kts 352°
2026-05-05 04:10 33.94529 -118.41260 101 ft 13 kts 354°
2026-05-05 04:10 33.94616 -118.41272 100 ft 13 kts 352°
2026-05-05 04:11 33.94707 -118.41286 99 ft 13 kts 353°
2026-05-05 04:11 33.94781 -118.41262 102 ft 11 kts 51°
2026-05-05 04:11 33.94807 -118.41178 99 ft 11 kts 87°
2026-05-05 04:11 33.94814 -118.41078 101 ft 13 kts 83°
2026-05-05 04:12 33.94825 -118.40965 101 ft 14 kts 83°
2026-05-05 04:12 33.94838 -118.40838 99 ft 16 kts 83°
2026-05-05 04:12 33.94852 -118.40701 99 ft 17 kts 83°
2026-05-05 04:12 33.94868 -118.40552 99 ft 19 kts 83°
2026-05-05 04:13 33.94884 -118.40392 99 ft 20 kts 83°
2026-05-05 04:13 33.94901 -118.40227 101 ft 20 kts 83°
2026-05-05 04:13 33.94918 -118.40055 101 ft 21 kts 83°
2026-05-05 04:13 33.94932 -118.39957 98 ft 0 kts 69°
2026-05-05 04:14 33.94933 -118.39955 98 ft 1 kts 66°
2026-05-05 04:14 33.94935 -118.39949 100 ft 0 kts 58°
2026-05-05 04:16 33.94935 -118.39948 98 ft 0 kts 56°
2026-05-05 04:16 33.94940 -118.39941 100 ft 5 kts 48°
2026-05-05 04:16 33.95006 -118.39918 100 ft 12 kts 348°
2026-05-05 04:16 33.95035 -118.39963 99 ft 7 kts 279°
2026-05-05 04:17 33.95036 -118.40008 101 ft 0 kts 263°
2026-05-05 04:20 33.95029 -118.40075 99 ft 29 kts 263°
2026-05-05 04:20 33.94976 -118.40599 105 ft 95 kts 263°
2026-05-05 04:20 33.94872 -118.41601 104 ft 143 kts 263°
2026-05-05 04:21 33.94744 -118.42911 167 ft 166 kts 263°
2026-05-05 04:21 33.94601 -118.44276 629 ft 166 kts 261°
2026-05-05 04:21 33.94449 -118.45701 927 ft 176 kts 263°
2026-05-05 04:21 33.94351 -118.47167 1392 ft 171 kts 268°
2026-05-05 04:22 33.94322 -118.48560 1880 ft 169 kts 267°
2026-05-05 04:22 33.94274 -118.50021 1961 ft 180 kts 268°
2026-05-05 04:22 33.94186 -118.51579 2032 ft 191 kts 264°
2026-05-05 04:22 33.94046 -118.53214 2113 ft 200 kts 264°
2026-05-05 04:23 33.93908 -118.54910 2188 ft 207 kts 264°
2026-05-05 04:23 33.93766 -118.56723 2311 ft 226 kts 264°
2026-05-05 04:23 33.93612 -118.58701 2468 ft 245 kts 264°
2026-05-05 04:23 33.93427 -118.60771 2926 ft 250 kts 258°
2026-05-05 04:24 33.92697 -118.62646 3488 ft 253 kts 230°
2026-05-05 04:24 33.91277 -118.63899 4026 ft 257 kts 202°
2026-05-05 04:24 33.89507 -118.64191 4603 ft 262 kts 174°
2026-05-05 04:25 33.86224 -118.62138 5661 ft 271 kts 145°
2026-05-05 04:25 33.84674 -118.60823 6183 ft 273 kts 149°
2026-05-05 04:25 33.83062 -118.59659 6723 ft 275 kts 153°
2026-05-05 04:25 33.81363 -118.58593 7250 ft 276 kts 156°
2026-05-05 04:26 33.79625 -118.57589 7778 ft 277 kts 157°
2026-05-05 04:26 33.77870 -118.56609 8301 ft 279 kts 158°
2026-05-05 04:26 33.76098 -118.55628 8848 ft 281 kts 158°
2026-05-05 04:26 33.74310 -118.54637 9388 ft 283 kts 158°
2026-05-05 04:27 33.72516 -118.53641 9912 ft 285 kts 158°
2026-05-05 04:27 33.70716 -118.52542 10147 ft 300 kts 147°
2026-05-05 04:27 33.69259 -118.50698 10281 ft 320 kts 123°
2026-05-05 04:27 33.68345 -118.48197 10423 ft 335 kts 111°
2026-05-05 04:28 33.67600 -118.45487 10548 ft 349 kts 110°
2026-05-05 04:28 33.66852 -118.42687 10861 ft 354 kts 110°
2026-05-05 04:28 33.66070 -118.39863 11293 ft 357 kts 111°
2026-05-05 04:28 33.65260 -118.37033 11694 ft 360 kts 110°
2026-05-05 04:29 33.64653 -118.34105 12157 ft 364 kts 101°
2026-05-05 04:29 33.64427 -118.31052 12536 ft 370 kts 91°
2026-05-05 04:29 33.64457 -118.27939 12942 ft 373 kts 91°
2026-05-05 04:29 33.64469 -118.24817 13344 ft 376 kts 91°
2026-05-05 04:30 33.64483 -118.21664 13736 ft 380 kts 88°
2026-05-05 04:30 33.65027 -118.18581 14075 ft 385 kts 68°
2026-05-05 04:30 33.66393 -118.15830 14461 ft 386 kts 47°
2026-05-05 04:30 33.68387 -118.13690 14809 ft 386 kts 33°
2026-05-05 04:31 33.70635 -118.11899 15165 ft 388 kts 31°
2026-05-05 04:31 33.72915 -118.10129 15523 ft 391 kts 32°
2026-05-05 04:31 33.75176 -118.08277 15866 ft 394 kts 33°
2026-05-05 04:31 33.77386 -118.06377 16211 ft 397 kts 34°
2026-05-05 04:32 33.79626 -118.04395 16516 ft 401 kts 36°
2026-05-05 04:32 33.81873 -118.02379 16872 ft 404 kts 36°
2026-05-05 04:32 33.84134 -118.00343 17235 ft 407 kts 36°
2026-05-05 04:32 33.86408 -117.98293 17584 ft 410 kts 36°
2026-05-05 04:33 33.88695 -117.96231 17949 ft 411 kts 36°
2026-05-05 04:33 33.90991 -117.94162 18294 ft 414 kts 36°
2026-05-05 04:33 33.93298 -117.92067 18587 ft 416 kts 36°
2026-05-05 04:33 33.95615 -117.89947 18899 ft 418 kts 37°
2026-05-05 04:34 33.97903 -117.87848 19185 ft 420 kts 37°
2026-05-05 04:34 34.00235 -117.85710 19463 ft 422 kts 36°
2026-05-05 04:34 34.02580 -117.83560 19762 ft 424 kts 36°
2026-05-05 04:34 34.04938 -117.81400 20045 ft 426 kts 36°
2026-05-05 04:35 34.07304 -117.79228 20328 ft 428 kts 37°
2026-05-05 04:35 34.09528 -117.76806 20597 ft 431 kts 47°
2026-05-05 04:35 34.11461 -117.74030 20872 ft 433 kts 52°
2026-05-05 04:35 34.13359 -117.71181 21153 ft 435 kts 51°
2026-05-05 04:36 34.15272 -117.68344 21439 ft 437 kts 51°
2026-05-05 04:36 34.17200 -117.65491 21717 ft 439 kts 51°
2026-05-05 04:36 34.19137 -117.62622 21995 ft 442 kts 51°
2026-05-05 04:36 34.21063 -117.59764 22235 ft 445 kts 51°
2026-05-05 04:37 34.23019 -117.56857 22533 ft 446 kts 51°
2026-05-05 04:37 34.24982 -117.53937 22733 ft 449 kts 51°
2026-05-05 04:37 34.26956 -117.50995 22980 ft 450 kts 51°
2026-05-05 04:37 34.28929 -117.48053 23248 ft 453 kts 51°
2026-05-05 04:38 34.30922 -117.45078 23439 ft 455 kts 51°
2026-05-05 04:38 34.32919 -117.42095 23686 ft 457 kts 51°
2026-05-05 04:38 34.34913 -117.39111 23890 ft 460 kts 51°
2026-05-05 04:38 34.36943 -117.36073 24059 ft 462 kts 51°
2026-05-05 04:39 34.38971 -117.33035 24242 ft 465 kts 51°
2026-05-05 04:39 34.41018 -117.29967 24388 ft 468 kts 51°
2026-05-05 04:39 34.43042 -117.26930 24589 ft 470 kts 51°
2026-05-05 04:39 34.45110 -117.23824 24760 ft 473 kts 52°
2026-05-05 04:40 34.47184 -117.20707 24983 ft 476 kts 52°
2026-05-05 04:40 34.49267 -117.17574 25138 ft 478 kts 52°
2026-05-05 04:40 34.51356 -117.14428 25386 ft 479 kts 52°
2026-05-05 04:40 34.53449 -117.11274 25574 ft 482 kts 52°
2026-05-05 04:41 34.55566 -117.08098 25804 ft 484 kts 51°
2026-05-05 04:41 34.57721 -117.04955 26030 ft 486 kts 51°
2026-05-05 04:41 34.59906 -117.01798 26256 ft 489 kts 50°
2026-05-05 04:41 34.62100 -116.98624 26466 ft 492 kts 51°
2026-05-05 04:42 34.64303 -116.95424 26686 ft 495 kts 51°
2026-05-05 04:42 34.66487 -116.92240 26923 ft 498 kts 51°
2026-05-05 04:42 34.68714 -116.88988 27151 ft 501 kts 51°
2026-05-05 04:42 34.70946 -116.85724 27361 ft 504 kts 51°
2026-05-05 04:43 34.73204 -116.82417 27497 ft 509 kts 51°
2026-05-05 04:43 34.75467 -116.79101 27761 ft 511 kts 51°
2026-05-05 04:43 34.77745 -116.75759 28001 ft 514 kts 51°
2026-05-05 04:43 34.80035 -116.72397 28203 ft 517 kts 51°
2026-05-05 04:44 34.82332 -116.69023 28438 ft 519 kts 51°
2026-05-05 04:44 34.84650 -116.65614 28630 ft 523 kts 51°
2026-05-05 04:44 34.86991 -116.62212 28860 ft 526 kts 49°
2026-05-05 04:44 34.89419 -116.58946 29071 ft 529 kts 47°
2026-05-05 04:45 34.91965 -116.55618 29340 ft 530 kts 47°
2026-05-05 04:45 34.94459 -116.52349 29553 ft 533 kts 47°
2026-05-05 04:45 34.96979 -116.49015 29769 ft 536 kts 47°
2026-05-05 04:45 34.99509 -116.45644 29984 ft 539 kts 48°
2026-05-05 04:46 35.02060 -116.42229 30168 ft 542 kts 48°
2026-05-05 04:46 35.04572 -116.38858 30354 ft 545 kts 48°
2026-05-05 04:46 35.07163 -116.35376 30560 ft 548 kts 48°
2026-05-05 04:46 35.09692 -116.31972 30753 ft 550 kts 48°
2026-05-05 04:47 35.12277 -116.28490 30876 ft 555 kts 48°
2026-05-05 04:47 35.17534 -116.21400 30869 ft 570 kts 47°
2026-05-05 04:48 35.22919 -116.14126 30870 ft 581 kts 48°
2026-05-05 04:48 35.28300 -116.06838 30881 ft 574 kts 48°
2026-05-05 04:49 35.33659 -115.99566 30890 ft 575 kts 48°
2026-05-05 04:49 35.38973 -115.92337 30885 ft 574 kts 47°
2026-05-05 04:50 35.44306 -115.85068 30900 ft 572 kts 47°
2026-05-05 04:50 35.49637 -115.77787 30915 ft 572 kts 48°
2026-05-05 04:51 35.54954 -115.70509 30906 ft 573 kts 48°
2026-05-05 04:51 35.60276 -115.63210 30883 ft 573 kts 47°
2026-05-05 04:52 35.65568 -115.55934 30907 ft 575 kts 47°
2026-05-05 04:52 35.70900 -115.48591 30908 ft 574 kts 47°
2026-05-05 04:53 35.76182 -115.41295 30893 ft 574 kts 47°
2026-05-05 04:53 35.81495 -115.33940 30905 ft 574 kts 47°
2026-05-05 04:54 35.86800 -115.26581 30901 ft 573 kts 47°
2026-05-05 04:54 35.92099 -115.19215 30907 ft 569 kts 47°
2026-05-05 04:55 35.97346 -115.11905 30907 ft 569 kts 47°
2026-05-05 04:55 36.02565 -115.04619 30894 ft 570 kts 47°
2026-05-05 04:56 36.07830 -114.97253 30846 ft 574 kts 48°
2026-05-05 04:56 36.13109 -114.89850 30800 ft 573 kts 48°
2026-05-05 04:57 36.18438 -114.82498 30795 ft 572 kts 43°
2026-05-05 04:57 36.24440 -114.76037 30781 ft 570 kts 39°
2026-05-05 04:58 36.30384 -114.69689 30759 ft 566 kts 39°
2026-05-05 04:58 36.36365 -114.63287 30739 ft 568 kts 39°
2026-05-05 04:59 36.42350 -114.56869 30738 ft 567 kts 39°
2026-05-05 04:59 36.48325 -114.50450 30734 ft 569 kts 39°
2026-05-05 05:00 36.54284 -114.44034 30736 ft 561 kts 39°
2026-05-05 05:00 36.60134 -114.37722 30711 ft 561 kts 39°
2026-05-05 05:01 36.66068 -114.31307 30747 ft 564 kts 39°
2026-05-05 05:01 36.71989 -114.24893 30751 ft 563 kts 39°
2026-05-05 05:02 36.77857 -114.18522 30759 ft 563 kts 39°
2026-05-05 05:02 36.83748 -114.12112 30764 ft 556 kts 39°
2026-05-05 05:03 36.89564 -114.05770 30731 ft 555 kts 39°
2026-05-05 05:03 36.94412 -114.00475 30774 ft 557 kts 39°
2026-05-05 05:04 37.01190 -113.93054 30786 ft 557 kts 39°
2026-05-05 05:04 37.06066 -113.87704 30811 ft 557 kts 39°
2026-05-05 05:05 37.11885 -113.81309 30824 ft 552 kts 39°
2026-05-05 05:05 37.17586 -113.75032 30836 ft 548 kts 39°
2026-05-05 05:06 37.23349 -113.68670 30844 ft 552 kts 39°
2026-05-05 05:06 37.29124 -113.62282 30798 ft 552 kts 39°
2026-05-05 05:07 37.34882 -113.55899 30810 ft 552 kts 39°
2026-05-05 05:07 37.40632 -113.49512 30806 ft 549 kts 39°
2026-05-05 05:08 37.46290 -113.43213 30819 ft 547 kts 40°
2026-05-05 05:08 37.52013 -113.36828 30859 ft 549 kts 40°
2026-05-05 05:09 37.57739 -113.30426 30912 ft 550 kts 40°
2026-05-05 05:09 37.63422 -113.24059 30955 ft 549 kts 40°
2026-05-05 05:10 37.69132 -113.17649 30981 ft 547 kts 40°
2026-05-05 05:10 37.74793 -113.11279 30982 ft 544 kts 40°
2026-05-05 05:11 37.80493 -113.04900 30968 ft 548 kts 37°
2026-05-05 05:11 37.86464 -112.98995 30920 ft 546 kts 35°
2026-05-05 05:12 37.92491 -112.93124 30869 ft 547 kts 36°
2026-05-05 05:12 37.98471 -112.87195 30798 ft 540 kts 36°
2026-05-05 05:13 38.04353 -112.81322 30794 ft 539 kts 36°
2026-05-05 05:13 38.10260 -112.75406 30807 ft 543 kts 36°
2026-05-05 05:14 38.16194 -112.69451 30809 ft 543 kts 36°
2026-05-05 05:14 38.22119 -112.63492 30810 ft 543 kts 36°
2026-05-05 05:15 38.27990 -112.57575 30814 ft 535 kts 37°
2026-05-05 05:15 38.33799 -112.51707 30808 ft 537 kts 37°
2026-05-05 05:16 38.39648 -112.45786 30795 ft 537 kts 37°
2026-05-05 05:16 38.45506 -112.39844 30812 ft 539 kts 36°
2026-05-05 05:17 38.51344 -112.33911 30813 ft 538 kts 36°
2026-05-05 05:17 38.57212 -112.27933 30813 ft 538 kts 36°
2026-05-05 05:18 38.63071 -112.21952 30811 ft 538 kts 37°
2026-05-05 05:18 38.68920 -112.15967 30836 ft 538 kts 37°
2026-05-05 05:19 38.74771 -112.09968 30844 ft 539 kts 36°
2026-05-05 05:19 38.80575 -112.04004 30845 ft 534 kts 37°
2026-05-05 05:20 38.86377 -111.98031 30835 ft 534 kts 37°
2026-05-05 05:20 38.92174 -111.92048 30820 ft 535 kts 37°
2026-05-05 05:21 38.97969 -111.86055 30814 ft 535 kts 37°
2026-05-05 05:21 39.03765 -111.80046 30822 ft 535 kts 37°
2026-05-05 05:22 39.09530 -111.74058 30819 ft 531 kts 37°
2026-05-05 05:22 39.15235 -111.68121 30817 ft 531 kts 37°
2026-05-05 05:23 39.20984 -111.62125 30824 ft 531 kts 37°
2026-05-05 05:23 39.26737 -111.56111 30824 ft 530 kts 37°
2026-05-05 05:24 39.32473 -111.50101 30823 ft 530 kts 37°
2026-05-05 05:24 39.38138 -111.44152 30845 ft 527 kts 38°
2026-05-05 05:25 39.43843 -111.38149 30857 ft 528 kts 38°
2026-05-05 05:25 39.49543 -111.32138 30859 ft 528 kts 38°
2026-05-05 05:26 39.55211 -111.26147 30862 ft 528 kts 38°
2026-05-05 05:26 39.60894 -111.20129 30861 ft 526 kts 38°
2026-05-05 05:27 39.66560 -111.14114 30891 ft 526 kts 38°
2026-05-05 05:27 39.75080 -111.05044 30903 ft 527 kts 38°
2026-05-05 05:28 39.80717 -110.99029 30894 ft 527 kts 38°
2026-05-05 05:28 39.86389 -110.92963 30899 ft 526 kts 38°
2026-05-05 05:29 39.92023 -110.86922 30890 ft 523 kts 38°
2026-05-05 05:29 39.97648 -110.80879 30885 ft 524 kts 38°
2026-05-05 05:30 40.03239 -110.74858 30882 ft 524 kts 38°
2026-05-05 05:30 40.08859 -110.68793 30863 ft 524 kts 38°
2026-05-05 05:31 40.14463 -110.62732 30860 ft 518 kts 38°
2026-05-05 05:31 40.20003 -110.56727 30836 ft 519 kts 38°
2026-05-05 05:32 40.25558 -110.50693 30836 ft 519 kts 38°
2026-05-05 05:32 40.31111 -110.44648 30820 ft 520 kts 38°
2026-05-05 05:33 40.36677 -110.38574 30841 ft 520 kts 38°
2026-05-05 05:33 40.42184 -110.32553 30814 ft 518 kts 38°
2026-05-05 05:34 40.47715 -110.26491 30831 ft 518 kts 38°
2026-05-05 05:34 40.53249 -110.20413 30830 ft 518 kts 38°
2026-05-05 05:35 40.58782 -110.14323 30821 ft 518 kts 38°
2026-05-05 05:35 40.64338 -110.08191 30822 ft 521 kts 37°
2026-05-05 05:36 40.69875 -110.02069 30804 ft 519 kts 37°
2026-05-05 05:36 40.75406 -109.95940 30807 ft 520 kts 37°
2026-05-05 05:37 40.80945 -109.89787 30794 ft 519 kts 37°
2026-05-05 05:37 40.86446 -109.83662 30789 ft 520 kts 37°
2026-05-05 05:38 40.91944 -109.77528 30772 ft 512 kts 38°
2026-05-05 05:38 40.97378 -109.71449 30767 ft 512 kts 38°
2026-05-05 05:39 41.02828 -109.65343 30758 ft 512 kts 38°
2026-05-05 05:39 41.08265 -109.59236 30752 ft 512 kts 38°
2026-05-05 05:40 41.13663 -109.53159 30757 ft 512 kts 38°
2026-05-05 05:40 41.19108 -109.47015 30768 ft 512 kts 38°
2026-05-05 05:41 41.24536 -109.40874 30769 ft 511 kts 38°
2026-05-05 05:41 41.29914 -109.34780 30775 ft 511 kts 38°
2026-05-05 05:42 41.35322 -109.28637 30781 ft 511 kts 38°
2026-05-05 05:42 41.40722 -109.22489 30794 ft 507 kts 38°
2026-05-05 05:43 41.46060 -109.16399 30791 ft 505 kts 38°
2026-05-05 05:43 41.48732 -109.13348 30952 ft 506 kts 38°
2026-05-05 05:43 41.51405 -109.10293 30979 ft 506 kts 38°
2026-05-05 05:44 41.56737 -109.04189 30981 ft 504 kts 38°
2026-05-05 05:44 41.61824 -108.97708 30984 ft 507 kts 44°
2026-05-05 05:45 41.66770 -108.91006 30953 ft 502 kts 43°
2026-05-05 05:45 41.71661 -108.84418 30906 ft 502 kts 43°
2026-05-05 05:46 41.76573 -108.77766 30877 ft 503 kts 43°
2026-05-05 05:46 41.81489 -108.71081 30832 ft 503 kts 43°
2026-05-05 05:47 41.86398 -108.64383 30836 ft 503 kts 43°
2026-05-05 05:47 41.91294 -108.57685 30849 ft 502 kts 43°
2026-05-05 05:48 41.96142 -108.51036 30841 ft 499 kts 43°
2026-05-05 05:48 42.01004 -108.44355 30853 ft 500 kts 43°
2026-05-05 05:49 42.05882 -108.37634 30852 ft 503 kts 43°
2026-05-05 05:49 42.10777 -108.30875 30857 ft 503 kts 43°
2026-05-05 05:50 42.15664 -108.24111 30861 ft 503 kts 43°
2026-05-05 05:50 42.20501 -108.17399 30859 ft 501 kts 43°
2026-05-05 05:51 42.25367 -108.10634 30866 ft 502 kts 43°
2026-05-05 05:51 42.30228 -108.03859 30867 ft 502 kts 43°
2026-05-05 05:52 42.35088 -107.97068 30878 ft 502 kts 43°
2026-05-05 05:52 42.39941 -107.90273 30877 ft 502 kts 43°
2026-05-05 05:53 42.43980 -107.84602 30902 ft 503 kts 43°
2026-05-05 05:53 42.49618 -107.76670 30903 ft 503 kts 43°
2026-05-05 05:54 42.53697 -107.70919 30925 ft 506 kts 42°
2026-05-05 05:54 42.58546 -107.64066 30925 ft 506 kts 43°
2026-05-05 05:55 42.63422 -107.57158 30944 ft 506 kts 43°
2026-05-05 05:55 42.68290 -107.50243 30959 ft 506 kts 42°
2026-05-05 05:56 42.73152 -107.43321 30960 ft 506 kts 42°
2026-05-05 05:56 42.77988 -107.36421 30960 ft 507 kts 42°
2026-05-05 05:57 42.82856 -107.29458 30971 ft 508 kts 42°
2026-05-05 05:57 42.87732 -107.22465 30973 ft 508 kts 42°
2026-05-05 05:58 42.92604 -107.15462 31011 ft 508 kts 42°
2026-05-05 05:58 42.97432 -107.08502 30969 ft 507 kts 41°
2026-05-05 05:59 43.02274 -107.01508 30980 ft 507 kts 41°
2026-05-05 05:59 43.07129 -106.94478 30992 ft 507 kts 41°
2026-05-05 06:00 43.11953 -106.87474 30979 ft 508 kts 41°
2026-05-05 06:00 43.16792 -106.80432 30977 ft 508 kts 41°
2026-05-05 06:01 43.21634 -106.73367 30974 ft 508 kts 41°
2026-05-05 06:01 43.26484 -106.66275 30978 ft 511 kts 41°
2026-05-05 06:02 43.31308 -106.59201 30968 ft 511 kts 41°
2026-05-05 06:02 43.36164 -106.52063 30974 ft 510 kts 41°
2026-05-05 06:03 43.41008 -106.44925 30974 ft 510 kts 41°
2026-05-05 06:03 43.45870 -106.37745 30978 ft 513 kts 41°
2026-05-05 06:04 43.50739 -106.30533 30981 ft 516 kts 41°
2026-05-05 06:04 43.55587 -106.23333 30980 ft 516 kts 41°
2026-05-05 06:05 43.60462 -106.16075 30989 ft 516 kts 41°
2026-05-05 06:05 43.65333 -106.08805 30993 ft 516 kts 41°
2026-05-05 06:06 43.70202 -106.01521 30988 ft 516 kts 41°
2026-05-05 06:06 43.75080 -105.94204 30990 ft 518 kts 41°
2026-05-05 06:07 43.79957 -105.86867 30994 ft 518 kts 41°
2026-05-05 06:07 43.84797 -105.79568 30993 ft 518 kts 41°
2026-05-05 06:08 43.89678 -105.72188 30996 ft 518 kts 41°
2026-05-05 06:08 43.94549 -105.64805 31029 ft 519 kts 41°
2026-05-05 06:09 43.99444 -105.57368 30999 ft 522 kts 41°
2026-05-05 06:09 44.04306 -105.49957 30999 ft 521 kts 41°
2026-05-05 06:10 44.09196 -105.42486 30997 ft 522 kts 41°
2026-05-05 06:10 44.14083 -105.35001 31020 ft 526 kts 41°
2026-05-05 06:11 44.18977 -105.27481 30998 ft 524 kts 41°
2026-05-05 06:11 44.23862 -105.19955 31001 ft 523 kts 41°
2026-05-05 06:12 44.28752 -105.12406 31000 ft 524 kts 41°
2026-05-05 06:12 44.33647 -105.04829 31006 ft 526 kts 41°
2026-05-05 06:13 44.38547 -104.97221 31006 ft 526 kts 41°
2026-05-05 06:13 44.43440 -104.89598 31012 ft 524 kts 40°
2026-05-05 06:14 44.48277 -104.82049 31016 ft 523 kts 40°
2026-05-05 06:14 44.53146 -104.74434 31021 ft 524 kts 40°
2026-05-05 06:15 44.58001 -104.66813 31021 ft 524 kts 40°
2026-05-05 06:15 44.62864 -104.59160 31023 ft 525 kts 40°
2026-05-05 06:16 44.67688 -104.51546 31025 ft 524 kts 40°
2026-05-05 06:16 44.72549 -104.43857 31026 ft 527 kts 40°
2026-05-05 06:17 44.77417 -104.36134 31019 ft 527 kts 40°
2026-05-05 06:17 44.82280 -104.28396 31026 ft 527 kts 40°
2026-05-05 06:18 44.87140 -104.20643 31069 ft 527 kts 40°
2026-05-05 06:18 44.92034 -104.12830 31020 ft 533 kts 40°
2026-05-05 06:19 44.96929 -104.04986 31019 ft 532 kts 40°
2026-05-05 06:19 45.01805 -103.97203 31016 ft 531 kts 39°
2026-05-05 06:20 45.06890 -103.89630 31028 ft 532 kts 37°
2026-05-05 06:20 45.12031 -103.82026 31016 ft 533 kts 38°
2026-05-05 06:21 45.17105 -103.74443 31005 ft 534 kts 38°
2026-05-05 06:21 45.22212 -103.66764 31017 ft 534 kts 38°
2026-05-05 06:22 45.27314 -103.59067 31027 ft 536 kts 38°
2026-05-05 06:22 45.32391 -103.51386 31022 ft 536 kts 38°
2026-05-05 06:23 45.37490 -103.43650 31048 ft 536 kts 38°
2026-05-05 06:23 45.42592 -103.35887 31024 ft 535 kts 38°
2026-05-05 06:24 45.47678 -103.28128 31028 ft 537 kts 38°
2026-05-05 06:24 45.52773 -103.20333 31028 ft 536 kts 38°
2026-05-05 06:25 45.57852 -103.12539 31031 ft 536 kts 38°
2026-05-05 06:25 45.62897 -103.04778 31062 ft 536 kts 38°
2026-05-05 06:26 45.67954 -102.96971 31038 ft 534 kts 38°
2026-05-05 06:26 45.73012 -102.89146 31031 ft 535 kts 38°
2026-05-05 06:27 45.80585 -102.77385 31017 ft 535 kts 38°
2026-05-05 06:28 45.85595 -102.69575 31052 ft 535 kts 38°
2026-05-05 06:28 45.90615 -102.61726 30999 ft 530 kts 39°
2026-05-05 06:29 45.95593 -102.53923 31000 ft 531 kts 39°
2026-05-05 06:29 46.00590 -102.46072 31117 ft 534 kts 39°
2026-05-05 06:29 46.03093 -102.42129 31464 ft 534 kts 39°
2026-05-05 06:30 46.05599 -102.38177 31796 ft 535 kts 39°
2026-05-05 06:30 46.08113 -102.34207 32106 ft 536 kts 40°